Lapse_Rate
5.7 6.5 6.5 6.5 6.5 6.5 6.5 6.5 6.5 6.5 6.5 6.5 6.5 6.5 6.5 5.6 5.5 5.2 4.2 5.0 5.1 4.2 4.4 4.4 4.3 4.4 4.6 4.0 3.3 3.3 2.6 1.8 2.0 1.8 1.9 1.9 2.1 1.6 1.2 2.0 3.1 3.1 2.8 2.5
6.5 6.5 6.5 6.5 6.5 6.5 6.5 6.5 6.5 6.5 6.5 6.5 6.5 6.5 6.5 6.3 6.1 5.2 4.2 4.6 5.2 4.8 4.7 4.9 4.4 4.4 4.2 4.2 3.6 3.6 3.3 1.9 2.6 2.4 1.4 1.8 1.4 1.2 1.1 2.5 2.7 3.1 2.8 2.5
6.5 6.5 6.5 6.5 6.5 6.5 6.5 6.5 6.5 6.5 6.5 6.5 6.5 6.5 6.5 6.5 6.0 5.4 5.2 4.4 5.5 4.3 4.5 4.8 4.0 3.8 3.3 3.5 2.5 2.6 2.2 1.7 2.4 2.2 1.8 0.7 0.7 0.9 1.3 1.3 0.8 2.2 3.0 3.3
6.5 6.4 6.5 6.5 6.5 6.5 6.5 6.5 6.5 6.5 6.5 6.5 6.5 6.5 6.5 6.5 6.5 6.5 5.9 4.5 5.5 4.5 5.1 4.9 4.5 3.6 3.0 2.5 2.3 2.3 2.2 1.6 1.9 1.9 2.4 2.2 1.7 2.1 0.6 0.3 0.6 1.8 3.0 2.6
6.5 6.5 6.5 6.5 6.5 6.5 6.5 6.5 6.5 6.5 6.5 6.5 6.5 6.5 6.5 6.5 6.5 6.5 6.1 5.1 5.2 5.4 5.1 4.5 4.1 4.0 3.5 2.8 1.5 1.5 1.6 2.5 2.5 2.4 2.6 1.5 2.3 1.7 -0.3 -0.1 0.9 0.9 1.3 1.8
6.5 5.4 6.5 6.5 6.5 6.5 6.5 6.5 6.5 6.5 6.5 6.5 6.5 6.5 6.5 6.5 6.5 6.5 6.2 5.9 4.9 2.9 2.9 2.4 3.0 3.6 3.0 1.5 1.9 1.6 2.1 1.8 2.4 2.6 1.0 1.7 2.6 1.1 0.5 -0.3 0.6 0.4 -0.1 0.3
6.5 6.5 6.5 6.4 6.5 6.5 6.5 6.5 6.5 6.5 6.5 6.5 6.5 6.5 6.5 6.5 6.5 6.5 6.3 4.8 3.4 3.9 2.8 2.0 2.4 2.6 2.1 1.2 1.5 1.7 1.8 3.0 3.2 3.2 2.1 2.0 1.9 1.6 1.6 0.8 0.6 0.7 0.7 0.8
6.5 6.5 6.5 6.5 6.5 6.5 6.5 6.5 6.5 6.5 6.5 6.5 6.5 6.5 6.5 6.5 5.5 5.2 4.3 2.4 1.6 0.6 3.7 2.5 2.3 2.2 2.1 1.7 1.5 2.5 1.6 0.4 1.3 1.4 1.1 0.3 0.5 0.7 1.4 1.7 1.9 2.3 2.2 2.6
6.5 6.5 6.5 6.5 6.5 6.5 6.5 6.5 6.5 6.5 6.5 6.5 6.5 6.5 6.5 6.5 6.5 5.7 4.8 3.2 1.5 -0.3 1.5 1.6 2.0 2.1 1.6 1.7 0.9 0.3 -0.0 0.3 0.0 -0.4 -0.2 -0.3 0.1 0.4 1.0 2.6 2.7 2.4 2.4 3.5
6.5 6.5 6.5 6.5 6.4 6.4 6.5 6.5 6.5 6.5 6.5 6.5 6.5 6.5 6.5 6.5 6.5 6.5 6.3 4.3 1.9 0.3 0.5 0.8 1.5 0.7 0.5 -0.3 -1.1 -1.4 0.1 0.6 -0.3 0.1 0.3 0.4 1.1 1.4 1.6 1.7 1.9 2.3 2.7 3.1
6.5 6.5 6.5 6.5 6.5 6.5 6.5 6.5 6.5 6.5 6.5 6.5 6.5 6.5 6.5 6.5 6.5 6.5 5.9 4.0 2.5 0.8 0.6 0.6 0.9 0.7 -0.0 -0.6 -0.6 -0.4 0.0 0.2 -0.0 0.3 0.0 -0.2 0.0 0.5 1.2 2.5 2.7 2.8 2.8 3.3
6.5 6.5 6.5 6.5 6.5 6.5 6.5 6.5 6.5 6.5 6.5 6.5 6.5 6.5 6.5 6.5 6.6 5.6 3.7 2.6 1.1 0.9 0.3 -0.0 0.1 0.2 -0.2 -0.1 -0.3 -0.0 0.6 0.7 0.6 0.1 -0.2 0.7 0.7 1.1 2.1 2.5 2.5 2.1 3.3 3.7
6.5 6.5 6.5 6.5 6.5 6.5 6.5 6.5 6.5 6.5 6.5 6.5 6.5 6.5 6.5 6.2 6.2 4.0 3.5 1.5 1.2 1.2 1.7 1.4 0.6 0.7 0.9 0.8 0.8 1.1 0.9 0.5 -0.0 0.3 0.8 0.6 1.5 2.3 2.5 2.4 2.1 1.3 1.6 2.8
4.6 6.5 6.5 6.5 6.5 6.5 6.5 6.5 6.5 6.5 6.5 6.5 6.5 6.5 6.5 6.5 6.5 5.4 2.9 1.5 0.9 1.3 1.2 0.7 1.1 1.0 1.6 2.0 1.4 0.6 0.3 -0.1 0.8 1.2 0.8 1.0 1.6 2.2 2.5 2.8 2.1 2.9 3.3 3.5
6.5 6.5 6.5 6.5 6.5 6.5 6.5 6.5 6.5 6.5 6.5 6.5 6.5 6.5 6.5 6.5 6.5 5.3 3.4 4.8 3.2 2.2 2.4 1.7 1.5 0.9 0.8 1.2 0.9 0.4 0.1 0.9 1.2 0.8 0.8 1.5 2.3 2.6 2.7 2.3 3.0 3.1 3.9 4.9
6.5 6.5 6.5 6.5 6.5 6.5 6.5 6.5 6.5 6.5 6.5 6.5 6.5 6.5 6.5 6.0 5.7 4.4 3.8 3.3 3.1 3.3 3.5 2.4 1.9 1.4 1.1 0.8 0.8 0.7 0.8 1.1 0.7 1.0 1.7 2.2 3.1 2.4 2.8 3.1 3.3 4.2 5.1 5.7
6.5 6.5 6.5 6.5 6.5 6.5 6.5 6.5 6.5 6.5 6.5 6.5 6.5 6.5 6.5 6.5 6.4 5.3 3.3 2.9 3.0 2.8 1.9 1.4 1.9 1.3 0.9 0.5 0.4 0.1 0.1 -0.3 0.5 2.0 2.4 2.3 2.5 2.4 2.8 3.8 4.6 5.0 5.7 5.1
6.5 6.5 6.5 6.5 6.5 6.5 6.5 6.5 6.5 6.5 6.5 6.5 6.5 6.5 6.4 6.0 4.8 3.4 3.4 3.0 2.7 1.5 0.1 -1.3 -2.2 -1.0 -1.0 -0.9 -1.0 -0.6 0.4 0.7 1.2 1.4 1.9 2.1 2.3 3.3 4.8 5.2 5.4 5.0 4.5 3.9
6.5 6.5 6.5 6.5 6.5 6.5 6.5 6.5 6.5 6.5 6.5 6.5 6.5 6.5 5.8 5.3 3.8 4.2 1.9 -0.2 -0.9 -1.6 -2.7 -3.5 -3.8 -3.7 -3.7 -2.9 -1.7 -1.2 -0.5 0.6 1.1 2.3 3.2 4.0 4.7 5.1 5.6 5.2 4.7 4.1 3.9 4.7
6.5 6.5 6.5 6.5 6.5 6.5 6.5 6.5 5.7 6.2 6.5 6.2 5.9 6.3 5.9 5.5 6.5 6.5 2.2 -0.5 -2.1 -2.7 -2.9 -3.2 -3.6 -3.5 -3.2 -2.8 -1.6 -0.4 0.5 1.6 2.3 3.9 4.4 5.1 5.4 5.0 4.5 3.9 3.7 4.0 5.6 4.6
6.5 6.5 6.5 6.5 6.5 6.5 6.5 6.2 5.2 6.5 6.5 4.5 4.1 4.0 4.4 6.4 4.3 1.3 -0.5 -1.6 -1.7 -1.9 -2.1 -1.9 -1.6 -1.7 -1.1 0.1 0.8 1.0 2.5 3.3 3.9 4.4 4.4 4.1 4.1 4.1 4.1 4.8 4.8 4.0 3.7 3.3
6.5 6.5 6.5 6.5 6.5 6.5 5.4 6.2 6.5 5.8 4.7 3.2 3.3 3.4 3.0 0.9 0.7 0.2 0.2 -0.3 -0.1 -0.3 0.5 0.9 0.2 0.6 1.6 2.8 3.1 3.4 3.0 3.2 3.3 4.1 4.1 4.2 5.1 5.2 4.7 3.7 3.0 3.2 3.1 2.6
6.5 6.5 6.5 6.5 6.5 5.9 5.5 5.5 3.3 1.7 2.4 3.2 3.0 2.6 1.4 0.9 1.5 1.1 0.9 1.4 1.6 1.3 1.1 1.7 1.4 2.1 3.4 3.8 4.0 3.6 3.9 4.0 3.9 3.8 3.6 3.3 3.1 3.2 3.0 2.9 2.9 2.5 2.4 1.4
6.5 6.0 6.5 6.5 6.5 6.4 5.0 2.2 1.3 2.1 1.4 1.1 1.4 1.8 1.7 0.2 1.6 1.5 2.2 2.7 2.4 2.0 2.0 2.5 3.1 3.3 3.5 4.5 4.4 4.2 4.4 3.9 3.6 3.6 3.4 3.1 2.8 2.8 2.7 2.4 2.3 2.1 1.3 1.6
6.2 6.2 6.5 6.5 6.5 6.1 5.0 2.3 0.4 0.1 0.0 -0.1 0.3 0.4 0.0 -0.4 2.0 2.1 2.8 3.0 2.9 2.9 3.6 4.1 4.4 4.8 5.1 5.4 4.9 3.9 3.3 3.4 3.5 3.4 3.4 3.4 2.4 2.8 2.6 2.7 2.7 3.0 2.8 3.1
5.7 6.5 6.5 6.5 5.6 5.0 4.5 3.0 2.1 1.5 1.3 0.9 0.1 1.0 1.7 1.3 1.4 2.7 3.1 3.5 4.0 4.5 5.1 5.2 5.4 5.3 4.3 3.2 2.7 2.6 2.5 2.3 2.5 2.9 2.6 2.0 1.8 2.0 2.5 2.8 3.2 4.0 4.5 4.8
Wind_Speed
3 4 2 4 4 2 3 2 2 4 5 5 8 5 14 11 6 8 8 10 14 17 17 14 14 13 11 7 7 9 10 9 9 5 4 3 3 3 2 6 11 13 17 17
4 1 5 5 7 4 6 5 9 9 7 8 7 6 5 10 12 12 13 12 14 14 12 14 14 13 13 13 12 11 12 11 10 7 3 3 3 2 3 7 11 14 17 17
4 5 1 1 2 1 2 3 7 8 4 4 6 3 4 4 4 6 8 14 14 18 19 16 17 17 14 16 16 15 14 14 11 7 4 3 5 5 2 2 3 6 14 12
4 3 2 2 2 4 5 3 6 4 1 2 4 3 4 6 13 9 13 11 16 17 17 17 18 18 18 17 13 12 11 13 10 9 6 7 5 5 4 3 3 5 8 12
6 4 3 2 5 6 9 3 5 1 3 3 4 4 5 0 8 15 15 16 15 17 17 17 17 17 16 11 10 10 10 11 10 11 7 5 4 2 3 4 7 6 10 15
5 4 3 5 2 6 3 2 4 4 2 2 3 4 5 5 12 11 15 17 14 11 9 9 9 10 11 8 11 10 12 11 8 10 7 8 8 7 7 6 5 4 4 6
2 3 2 2 2 4 5 5 3 4 4 4 2 1 8 7 8 9 10 14 13 12 12 12 14 15 12 15 13 11 13 14 11 10 8 8 8 8 11 9 6 7 4 3
4 4 4 1 4 4 1 5 4 3 3 4 3 4 6 5 6 6 6 9 6 9 14 16 18 16 15 15 14 12 11 6 7 8 8 7 8 5 5 6 7 7 5 4
4 4 2 3 2 3 3 2 3 6 3 2 3 6 10 6 4 6 5 6 8 9 12 15 14 14 13 14 14 13 8 7 7 7 8 9 9 10 9 8 7 5 6 6
6 1 3 4 2 4 2 6 1 3 2 3 4 4 5 5 6 3 7 8 8 6 7 8 10 10 9 8 7 8 9 11 10 11 11 10 12 11 11 11 12 12 9 9
6 4 4 1 5 9 2 2 3 4 5 4 1 5 7 6 5 7 8 6 8 8 10 11 12 11 11 10 10 10 10 11 11 10 9 9 8 8 9 10 10 10 8 10
8 6 4 9 3 4 3 2 5 4 4 1 4 6 4 8 6 5 9 5 6 7 10 12 11 10 11 12 12 14 14 13 10 7 7 8 9 9 10 9 10 8 10 10
7 1 2 7 6 4 1 4 4 5 3 6 5 6 3 5 7 7 8 8 7 7 6 5 6 10 12 12 12 11 7 6 7 9 10 8 9 11 11 10 10 10 8 7
9 4 7 7 8 4 2 3 4 5 3 3 6 6 6 8 7 8 9 8 6 7 9 7 6 7 9 9 7 6 6 7 10 11 10 10 11 12 11 10 8 6 5 5
6 5 4 3 3 4 5 5 6 7 5 6 8 7 8 4 7 7 6 2 1 6 7 7 6 6 6 5 6 6 7 9 10 10 10 12 9 8 6 5 5 6 5 4
2 3 3 3 3 3 4 7 6 5 4 7 5 6 3 3 2 6 7 7 7 6 5 8 9 10 9 8 7 8 9 11 9 9 6 4 6 8 8 9 8 7 6 6
4 6 4 4 2 2 6 8 7 7 6 6 6 8 2 2 4 5 6 7 7 7 7 8 6 4 4 5 8 9 6 7 7 7 8 9 11 12 11 8 8 6 6 2
6 6 3 3 3 1 7 2 7 5 2 4 5 5 4 5 4 5 4 6 7 6 7 7 6 6 6 4 7 8 8 8 10 11 11 12 13 10 7 7 6 4 1 2
2 6 3 4 4 4 4 4 6 5 3 3 6 7 6 5 4 7 7 8 6 6 6 6 6 8 10 11 9 13 12 13 14 13 12 9 8 7 5 5 3 3 3 5
5 6 4 3 5 8 8 4 4 6 2 6 5 6 7 3 3 3 4 5 8 8 7 7 8 10 12 10 12 15 13 14 12 10 9 7 7 6 5 3 2 4 4 4
3 4 5 2 3 7 8 5 5 6 7 8 8 7 6 5 3 5 7 8 8 8 9 9 11 11 9 9 13 14 12 10 6 6 6 7 5 4 3 5 4 4 5 3
7 7 4 3 3 7 6 5 8 6 2 7 5 6 6 8 8 9 9 8 8 8 8 8 10 9 7 6 9 10 9 6 5 5 5 3 2 2 2 3 4 4 4 5
2 7 6 8 6 4 3 4 3 5 8 6 7 6 10 11 6 9 8 7 7 7 6 6 9 10 8 8 7 8 4 4 5 5 3 3 3 3 4 3 4 3 4 3
3 4 4 4 2 4 2 3 4 3 5 5 4 7 8 12 11 11 10 8 7 6 6 6 9 9 8 7 7 5 4 3 4 3 3 3 4 5 5 4 4 4 4 4
5 8 7 1 1 3 4 3 6 10 10 12 10 7 13 15 11 12 10 8 7 6 6 6 7 7 6 5 6 6 5 4 4 4 4 4 3 5 5 4 5 5 6 6
5 7 6 6 11 5 5 7 8 10 9 9 14 11 9 12 13 12 9 7 7 8 7 7 6 6 6 7 7 7 7 6 6 5 5 4 4 5 5 5 7 10 15 16
Wind_Direction
360 59 259 235 223 174 58 41 334 301 238 177 198 186 185 179 176 180 196 190 192 205 206 200 200 199 193 177 163 170 159 157 148 153 151 149 164 158 140 136 148 146 140 134
23 271 232 262 188 43 21 353 324 301 303 160 178 213 174 177 197 194 194 193 196 205 206 200 196 193 195 189 182 180 177 168 174 172 159 153 150 147 115 169 155 143 137 137
168 221 175 114 270 338 268 233 252 225 336 41 113 353 145 212 207 218 216 205 198 195 198 198 194 193 191 196 191 188 182 176 180 171 142 85 80 77 101 158 120 156 143 137
221 287 255 86 253 141 310 222 246 268 97 188 57 252 264 197 212 206 217 194 205 204 201 203 198 192 196 201 198 191 179 179 179 176 172 165 167 166 186 158 118 110 118 111
246 191 178 242 221 180 234 267 269 144 122 84 350 71 273 97 220 221 209 211 203 207 198 193 204 210 194 176 187 183 177 186 189 185 182 166 167 141 127 101 112 104 99 102
218 187 196 213 241 190 212 121 41 58 72 48 231 136 275 194 221 221 218 210 200 185 191 191 187 187 183 171 185 186 181 189 187 191 190 180 173 146 137 125 137 134 109 92
8 295 281 160 294 19 68 55 356 357 10 217 10 50 234 243 241 216 205 206 206 187 170 174 173 183 176 184 188 184 186 194 189 193 182 170 160 155 159 157 147 137 126 117
146 331 159 192 177 178 143 140 154 230 187 263 336 249 259 241 296 254 185 184 188 182 183 180 180 181 183 189 194 196 191 193 175 174 165 147 145 149 146 142 144 144 141 138
141 264 335 218 203 155 175 197 170 102 352 53 251 289 309 317 83 92 115 146 182 189 176 180 177 178 179 182 186 187 167 174 173 165 148 150 148 154 152 146 138 133 135 143
208 243 217 308 82 281 172 160 59 16 169 248 283 280 244 321 333 124 168 189 200 190 164 162 171 173 175 178 162 166 175 178 172 163 160 160 155 152 148 150 153 157 155 151
138 126 276 77 197 205 149 137 62 119 134 179 217 264 220 239 263 282 299 211 207 190 183 181 185 184 177 164 168 174 169 167 175 170 157 142 141 145 148 158 165 162 158 173
194 147 177 208 133 155 150 154 147 128 227 198 158 268 249 239 277 275 272 270 213 192 195 188 183 170 172 180 181 187 183 184 175 148 136 156 154 155 167 171 172 172 175 186
182 157 69 347 353 12 174 213 145 115 79 194 146 256 287 269 258 263 252 254 213 189 181 159 157 183 189 191 191 189 174 169 157 157 163 159 170 178 182 180 180 179 177 174
110 130 157 188 211 167 205 239 166 143 129 200 220 257 273 253 256 280 258 255 213 196 188 181 178 196 202 198 192 175 161 162 167 171 172 175 190 188 187 189 183 172 150 148
133 145 155 208 174 183 190 223 179 211 202 164 251 203 258 308 267 278 233 235 179 168 172 187 192 215 221 187 176 165 160 170 184 180 180 200 196 178 168 127 116 108 121 137
344 164 119 158 74 26 247 240 239 221 227 263 244 257 231 294 8 46 53 91 79 83 165 203 205 207 211 190 177 173 183 191 172 180 180 113 85 62 61 79 91 81 76 58
124 131 111 228 63 6 329 222 220 227 210 186 190 222 138 70 53 47 70 88 85 58 37 25 13 254 217 189 176 182 152 122 118 117 101 97 102 98 98 98 81 79 69 16
124 100 83 183 61 340 240 285 223 192 281 232 127 123 117 134 103 75 72 115 89 68 43 26 12 25 32 81 87 92 97 93 93 89 90 94 98 93 86 88 97 96 119 280
90 122 111 143 181 292 282 189 159 164 249 335 131 130 144 150 75 19 31 37 61 66 54 44 39 48 53 55 71 87 83 91 93 97 95 92 87 93 90 96 41 13 292 255
57 68 118 140 151 207 230 233 162 119 287 198 156 167 168 107 90 247 67 47 56 54 51 58 56 63 68 67 81 84 86 91 92 98 97 90 83 86 71 62 295 254 252 269
57 30 149 135 205 286 244 203 128 146 231 162 174 165 147 157 193 127 89 65 62 64 63 67 69 74 78 89 96 94 97 91 97 105 111 104 103 132 182 225 245 263 257 258
162 143 179 92 74 278 190 121 166 206 69 140 159 151 122 113 102 98 91 83 76 76 73 70 78 66 54 49 77 80 75 86 87 93 103 124 184 253 285 273 276 267 271 275
201 178 177 176 207 229 238 208 175 161 147 167 145 145 131 126 119 112 111 103 87 80 74 74 87 77 59 66 79 87 85 94 86 69 41 356 325 309 303 285 280 283 275 256
245 166 135 104 217 226 171 65 72 89 112 104 94 118 131 126 128 123 117 110 99 83 85 87 87 83 77 65 66 72 74 64 64 38 357 334 329 309 294 281 265 261 259 264
196 140 140 79 63 81 11 68 113 93 91 89 71 91 125 124 123 124 118 111 105 98 90 86 88 89 84 70 56 33 17 16 6 346 332 318 289 290 291 271 256 256 242 227
193 166 158 213 186 159 164 141 130 116 113 112 115 101 99 118 122 120 114 113 113 109 105 97 87 73 59 63 49 29 21 26 18 356 340 324 320 316 304 295 297 257 255 259